EAG5520 SBBR-SBGR

Flight info

Callsign EAG5520
Flight time N/A
Altitude 32000
Route ENRUR UZ38 VUNOX
Aircraft B38M/M-SDE1FGHILORVWXY/HB1

Departure

Time N/A
Airport Presidente Juscelino Kubitschek International Airport (SBBR)

Arrival

Time 2026-05-04 23:10
Airport São Paulo/Guarulhos–Governor André Franco Montoro International Airport (SBGR)
Time Latitude Longitude Altitude Speed Heading
2026-05-04 21:23 -15.87229 -47.91719 3455 ft 0 kts 345°
2026-05-04 21:56 -16.54258 -47.62294 19848 ft 377 kts 157°
2026-05-04 21:56 -16.56564 -47.61232 19863 ft 352 kts 157°
2026-05-04 21:56 -16.58780 -47.60207 19796 ft 346 kts 157°
2026-05-04 21:57 -16.60971 -47.59192 19654 ft 344 kts 157°
2026-05-04 21:57 -16.63153 -47.58179 19510 ft 343 kts 157°
2026-05-04 21:57 -16.65320 -47.57171 19898 ft 341 kts 157°
2026-05-04 21:57 -16.67504 -47.56150 20362 ft 346 kts 157°
2026-05-04 21:58 -16.69708 -47.55115 20835 ft 349 kts 157°
2026-05-04 21:58 -16.71930 -47.54068 21318 ft 351 kts 157°
2026-05-04 21:58 -16.74161 -47.53013 21796 ft 353 kts 157°
2026-05-04 21:58 -16.76400 -47.51949 22351 ft 353 kts 157°
2026-05-04 21:59 -16.78405 -47.50538 22689 ft 355 kts 119°
2026-05-04 21:59 -16.79140 -47.48204 23672 ft 329 kts 100°
2026-05-04 21:59 -16.79192 -47.45813 24020 ft 339 kts 81°
2026-05-04 21:59 -16.78661 -47.43352 24053 ft 355 kts 81°
2026-05-04 22:00 -16.78648 -47.40751 24048 ft 365 kts 106°
2026-05-04 22:00 -16.79707 -47.38381 24156 ft 367 kts 133°
2026-05-04 22:00 -16.81657 -47.36732 24573 ft 359 kts 158°
2026-05-04 22:00 -16.84030 -47.36130 25008 ft 350 kts 182°
2026-05-04 22:01 -16.86456 -47.36174 25461 ft 349 kts 179°
2026-05-04 22:01 -16.88846 -47.35713 25973 ft 348 kts 169°
2026-05-04 22:01 -16.91180 -47.35083 26532 ft 344 kts 168°
2026-05-04 22:01 -16.93460 -47.34401 27098 ft 339 kts 167°
2026-05-04 22:02 -16.95696 -47.33690 27674 ft 332 kts 167°
2026-05-04 22:02 -16.97899 -47.32967 28039 ft 334 kts 166°
2026-05-04 22:02 -17.00150 -47.32198 28035 ft 347 kts 165°
2026-05-04 22:02 -17.02473 -47.31381 28057 ft 358 kts 165°
2026-05-04 22:03 -17.04838 -47.30543 28095 ft 369 kts 165°
2026-05-04 22:03 -17.07304 -47.29668 28127 ft 380 kts 165°
2026-05-04 22:03 -17.09847 -47.28764 28158 ft 391 kts 165°
2026-05-04 22:03 -17.12455 -47.27837 28184 ft 402 kts 165°
2026-05-04 22:04 -17.15095 -47.26905 28695 ft 397 kts 166°
2026-05-04 22:04 -17.17695 -47.26013 29321 ft 391 kts 166°
2026-05-04 22:04 -17.20263 -47.25134 29955 ft 385 kts 166°
2026-05-04 22:04 -17.22789 -47.24267 30491 ft 379 kts 166°
2026-05-04 22:05 -17.25278 -47.23409 30949 ft 373 kts 167°
2026-05-04 22:05 -17.27723 -47.22566 31412 ft 367 kts 167°
2026-05-04 22:05 -17.30125 -47.21739 31863 ft 361 kts 167°
2026-05-04 22:05 -17.32506 -47.20914 32102 ft 362 kts 167°
2026-05-04 22:06 -17.34913 -47.20068 32136 ft 368 kts 167°
2026-05-04 22:06 -17.39839 -47.18325 32114 ft 383 kts 167°
2026-05-04 22:07 -17.44996 -47.16502 32121 ft 399 kts 166°
2026-05-04 22:07 -17.50357 -47.14607 32117 ft 414 kts 166°
2026-05-04 22:08 -17.55920 -47.12641 32112 ft 429 kts 166°
2026-05-04 22:08 -17.61662 -47.10614 32112 ft 442 kts 166°
2026-05-04 22:09 -17.67581 -47.08523 32109 ft 455 kts 166°
2026-05-04 22:09 -17.73668 -47.06375 32109 ft 467 kts 166°
2026-05-04 22:10 -17.79879 -47.04184 32096 ft 478 kts 166°
2026-05-04 22:10 -17.86174 -47.01978 32115 ft 474 kts 166°
2026-05-04 22:11 -17.92438 -46.99782 32114 ft 474 kts 166°
2026-05-04 22:11 -17.98699 -46.97584 32108 ft 474 kts 166°
2026-05-04 22:12 -18.04968 -46.95381 32105 ft 475 kts 166°
2026-05-04 22:12 -18.11193 -46.93193 32106 ft 475 kts 166°
2026-05-04 22:13 -18.17470 -46.90984 32117 ft 476 kts 166°
2026-05-04 22:13 -18.23750 -46.88773 32125 ft 475 kts 166°
2026-05-04 22:14 -18.30026 -46.86561 32130 ft 476 kts 166°
2026-05-04 22:14 -18.36299 -46.84349 32126 ft 476 kts 166°
2026-05-04 22:15 -18.42584 -46.82131 32147 ft 476 kts 166°
2026-05-04 22:15 -18.48863 -46.79913 32135 ft 476 kts 166°
2026-05-04 22:16 -18.55106 -46.77706 32150 ft 476 kts 166°
2026-05-04 22:16 -18.61397 -46.75481 32136 ft 476 kts 166°
2026-05-04 22:17 -18.67688 -46.73253 32143 ft 477 kts 166°
2026-05-04 22:17 -18.73977 -46.71025 32149 ft 476 kts 166°
2026-05-04 22:18 -18.80262 -46.68797 32150 ft 477 kts 166°
2026-05-04 22:18 -18.86548 -46.66566 32153 ft 477 kts 166°
2026-05-04 22:19 -18.92832 -46.64328 32150 ft 477 kts 165°
2026-05-04 22:19 -18.99016 -46.61823 32154 ft 478 kts 164°
2026-05-04 22:20 -19.05238 -46.59322 32147 ft 478 kts 164°
2026-05-04 22:20 -19.11464 -46.56821 32156 ft 479 kts 164°
2026-05-04 22:21 -19.17696 -46.54315 32155 ft 479 kts 164°
2026-05-04 22:21 -19.23898 -46.51820 32156 ft 478 kts 164°
2026-05-04 22:22 -19.30127 -46.49312 32160 ft 479 kts 164°
2026-05-04 22:22 -19.36319 -46.46816 32162 ft 479 kts 164°
2026-05-04 22:23 -19.42546 -46.44305 32163 ft 479 kts 164°
2026-05-04 22:23 -19.48781 -46.41788 32168 ft 479 kts 164°
2026-05-04 22:24 -19.55008 -46.39273 32169 ft 479 kts 164°
2026-05-04 22:24 -19.61244 -46.36751 32173 ft 479 kts 164°
2026-05-04 22:25 -19.67428 -46.34249 32168 ft 479 kts 164°
2026-05-04 22:25 -19.73657 -46.31726 32168 ft 479 kts 164°
2026-05-04 22:26 -19.79887 -46.29195 32172 ft 479 kts 165°
2026-05-04 22:26 -19.86122 -46.26660 32176 ft 479 kts 165°
2026-05-04 22:27 -19.91304 -46.24552 32171 ft 479 kts 165°
2026-05-04 22:27 -19.97530 -46.22017 32169 ft 479 kts 165°
2026-05-04 22:28 -20.03444 -46.19607 32168 ft 479 kts 165°
2026-05-04 22:28 -20.10682 -46.16655 32159 ft 479 kts 165°
2026-05-04 22:29 -20.15869 -46.14537 32160 ft 480 kts 165°
2026-05-04 22:29 -20.22110 -46.11988 32163 ft 480 kts 165°
2026-05-04 22:30 -20.28347 -46.09438 32156 ft 480 kts 165°
2026-05-04 22:30 -20.34582 -46.06886 32161 ft 480 kts 165°
2026-05-04 22:31 -20.40820 -46.04331 32162 ft 481 kts 165°
2026-05-04 22:31 -20.47074 -46.01767 32159 ft 481 kts 165°
2026-05-04 22:32 -20.53317 -45.99206 32157 ft 481 kts 165°
2026-05-04 22:32 -20.59565 -45.96639 32155 ft 481 kts 165°
2026-05-04 22:33 -20.65817 -45.94070 32155 ft 482 kts 165°
2026-05-04 22:33 -20.72032 -45.91512 32155 ft 482 kts 165°
2026-05-04 22:34 -20.78294 -45.88929 32156 ft 482 kts 165°
2026-05-04 22:34 -20.84566 -45.86412 32154 ft 477 kts 171°
2026-05-04 22:34 -20.87777 -45.85867 32147 ft 461 kts 187°
2026-05-04 22:35 -20.90927 -45.86237 32172 ft 453 kts 197°
2026-05-04 22:35 -20.97107 -45.87585 32159 ft 452 kts 198°
2026-05-04 22:36 -21.03250 -45.89066 32161 ft 452 kts 199°
2026-05-04 22:36 -21.09340 -45.90576 32169 ft 452 kts 199°
2026-05-04 22:37 -21.15471 -45.92103 32166 ft 452 kts 199°
2026-05-04 22:37 -21.21605 -45.93633 32159 ft 452 kts 199°
2026-05-04 22:38 -21.27733 -45.95162 32156 ft 452 kts 199°
2026-05-04 22:38 -21.33862 -45.96693 32160 ft 453 kts 199°
2026-05-04 22:39 -21.39996 -45.98226 32166 ft 453 kts 199°
2026-05-04 22:39 -21.46132 -45.99761 32169 ft 452 kts 199°
2026-05-04 22:40 -21.52264 -46.01296 32165 ft 452 kts 199°
2026-05-04 22:40 -21.58403 -46.02834 32173 ft 453 kts 199°
2026-05-04 22:41 -21.64538 -46.04372 32172 ft 452 kts 199°
2026-05-04 22:41 -21.66741 -46.04925 32187 ft 452 kts 199°
2026-05-04 22:43 -21.70078 -46.05762 32182 ft 454 kts 199°
2026-05-04 22:43 -21.76190 -46.07297 32184 ft 454 kts 199°
2026-05-04 22:44 -21.82345 -46.08845 32191 ft 453 kts 199°
2026-05-04 22:44 -21.88489 -46.10391 32189 ft 453 kts 199°
2026-05-04 22:44 -21.91557 -46.11163 32024 ft 449 kts 200°
2026-05-04 22:45 -21.94585 -46.11926 31339 ft 448 kts 200°
2026-05-04 22:45 -22.00698 -46.13466 29539 ft 454 kts 199°
2026-05-04 22:45 -22.03780 -46.14243 28619 ft 456 kts 199°
2026-05-04 22:46 -22.06880 -46.15025 27750 ft 457 kts 199°
2026-05-04 22:46 -22.09972 -46.15806 27005 ft 455 kts 199°
2026-05-04 22:46 -22.13045 -46.16581 26333 ft 452 kts 199°
2026-05-04 22:46 -22.16069 -46.17346 25663 ft 450 kts 198°
2026-05-04 22:47 -22.19111 -46.18114 24988 ft 448 kts 198°
2026-05-04 22:47 -22.22139 -46.18880 24331 ft 447 kts 198°
2026-05-04 22:47 -22.25165 -46.19646 23640 ft 445 kts 198°
2026-05-04 22:47 -22.28178 -46.20408 22881 ft 443 kts 198°
2026-05-04 22:48 -22.31180 -46.21157 22199 ft 441 kts 195°
2026-05-04 22:48 -22.34211 -46.21631 21618 ft 438 kts 192°
2026-05-04 22:48 -22.37206 -46.22083 21127 ft 432 kts 192°
2026-05-04 22:48 -22.40180 -46.22549 20637 ft 431 kts 192°
2026-05-04 22:49 -22.43144 -46.23022 20125 ft 429 kts 192°
2026-05-04 22:49 -22.46085 -46.23495 19623 ft 426 kts 192°
2026-05-04 22:49 -22.49003 -46.23964 19107 ft 423 kts 192°
2026-05-04 22:49 -22.51906 -46.24432 18609 ft 420 kts 192°
2026-05-04 22:50 -22.54744 -46.24884 18137 ft 416 kts 191°
2026-05-04 22:50 -22.57602 -46.25325 17747 ft 415 kts 191°
2026-05-04 22:50 -22.60461 -46.25769 17413 ft 414 kts 191°
2026-05-04 22:50 -22.63308 -46.26211 17072 ft 412 kts 191°
2026-05-04 22:51 -22.66141 -46.26651 16743 ft 410 kts 191°
2026-05-04 22:51 -22.68959 -46.27090 16389 ft 409 kts 191°
2026-05-04 22:51 -22.71775 -46.27528 16043 ft 408 kts 191°
2026-05-04 22:51 -22.74582 -46.27965 15694 ft 407 kts 191°
2026-05-04 22:52 -22.77360 -46.28473 15294 ft 402 kts 198°
2026-05-04 22:52 -22.79837 -46.29653 14979 ft 378 kts 211°
2026-05-04 22:52 -22.82089 -46.30980 14704 ft 358 kts 211°
2026-05-04 22:52 -22.84227 -46.32262 14394 ft 343 kts 211°
2026-05-04 22:53 -22.86259 -46.33499 14103 ft 328 kts 211°
2026-05-04 22:53 -22.88207 -46.34695 13803 ft 315 kts 211°
2026-05-04 22:53 -22.90069 -46.35845 13521 ft 302 kts 212°
2026-05-04 22:53 -22.91858 -46.36952 13256 ft 290 kts 212°
2026-05-04 22:54 -22.93607 -46.38037 13005 ft 289 kts 212°
2026-05-04 22:54 -22.95325 -46.39103 12765 ft 284 kts 212°
2026-05-04 22:54 -22.97003 -46.40144 12544 ft 271 kts 212°
2026-05-04 22:54 -22.98612 -46.41143 12303 ft 260 kts 212°
2026-05-04 22:55 -23.00144 -46.42094 12077 ft 248 kts 212°
2026-05-04 22:55 -23.01610 -46.43004 11868 ft 237 kts 212°
2026-05-04 22:55 -23.03007 -46.43873 11657 ft 227 kts 212°
2026-05-04 22:55 -23.04375 -46.44724 11478 ft 227 kts 212°
2026-05-04 22:56 -23.05749 -46.45578 11291 ft 226 kts 212°
2026-05-04 22:56 -23.07089 -46.46411 11107 ft 218 kts 212°
2026-05-04 22:56 -23.08376 -46.47211 10919 ft 213 kts 212°
2026-05-04 22:56 -23.09661 -46.48011 10728 ft 212 kts 212°
2026-05-04 22:57 -23.10941 -46.48807 10576 ft 212 kts 212°
2026-05-04 22:57 -23.11373 -46.49075 10497 ft 211 kts 212°
2026-05-04 22:57 -23.12148 -46.49557 10422 ft 205 kts 212°
2026-05-04 22:57 -23.13290 -46.50269 10244 ft 200 kts 212°
2026-05-04 22:58 -23.14490 -46.51017 10056 ft 198 kts 212°
2026-05-04 22:58 -23.15685 -46.51762 9889 ft 198 kts 213°
2026-05-04 22:58 -23.16878 -46.52505 9712 ft 198 kts 212°
2026-05-04 22:58 -23.18076 -46.53250 9560 ft 198 kts 212°
2026-05-04 22:59 -23.19272 -46.53995 9377 ft 198 kts 212°
2026-05-04 22:59 -23.20462 -46.54737 9209 ft 197 kts 212°
2026-05-04 22:59 -23.21618 -46.55536 9004 ft 197 kts 215°
2026-05-04 22:59 -23.22766 -46.56351 8788 ft 197 kts 214°
2026-05-04 23:00 -23.23915 -46.57162 8606 ft 197 kts 214°
2026-05-04 23:00 -23.25065 -46.57973 8415 ft 197 kts 214°
2026-05-04 23:00 -23.26217 -46.58783 8235 ft 196 kts 214°
2026-05-04 23:00 -23.27360 -46.59596 8058 ft 196 kts 214°
2026-05-04 23:01 -23.28505 -46.60410 7870 ft 197 kts 213°
2026-05-04 23:01 -23.29648 -46.61222 7697 ft 196 kts 213°
2026-05-04 23:01 -23.30794 -46.62036 7543 ft 197 kts 213°
2026-05-04 23:01 -23.31918 -46.62834 7407 ft 197 kts 213°
2026-05-04 23:02 -23.33064 -46.63649 7277 ft 197 kts 213°
2026-05-04 23:02 -23.34193 -46.64451 7147 ft 197 kts 213°
2026-05-04 23:02 -23.35342 -46.65268 7011 ft 197 kts 213°
2026-05-04 23:02 -23.36486 -46.66081 6886 ft 197 kts 212°
2026-05-04 23:03 -23.37631 -46.66895 6746 ft 197 kts 212°
2026-05-04 23:03 -23.38785 -46.67717 6638 ft 197 kts 212°
2026-05-04 23:03 -23.39933 -46.68534 6502 ft 197 kts 212°
2026-05-04 23:03 -23.41078 -46.69349 6354 ft 196 kts 211°
2026-05-04 23:04 -23.42255 -46.70081 6182 ft 193 kts 193°
2026-05-04 23:04 -23.43535 -46.70103 5974 ft 181 kts 166°
2026-05-04 23:04 -23.44783 -46.69850 5897 ft 183 kts 166°
2026-05-04 23:04 -23.46035 -46.69583 5832 ft 183 kts 166°
2026-05-04 23:05 -23.47265 -46.69275 5721 ft 177 kts 155°
2026-05-04 23:05 -23.48148 -46.68473 5550 ft 161 kts 118°
2026-05-04 23:05 -23.48387 -46.67325 5445 ft 154 kts 94°
2026-05-04 23:05 -23.48350 -46.66164 5349 ft 153 kts 85°
2026-05-04 23:06 -23.48179 -46.65018 5261 ft 152 kts 81°
2026-05-04 23:06 -23.47937 -46.63901 5144 ft 151 kts 79°
2026-05-04 23:06 -23.47661 -46.62794 5005 ft 151 kts 77°
2026-05-04 23:06 -23.47375 -46.61708 4823 ft 148 kts 77°
2026-05-04 23:07 -23.47090 -46.60638 4629 ft 147 kts 77°
2026-05-04 23:07 -23.46803 -46.59565 4485 ft 148 kts 77°
2026-05-04 23:07 -23.46513 -46.58486 4293 ft 148 kts 77°
2026-05-04 23:07 -23.46229 -46.57432 4090 ft 147 kts 77°
2026-05-04 23:08 -23.45940 -46.56358 3897 ft 149 kts 77°
2026-05-04 23:08 -23.45650 -46.55280 3742 ft 147 kts 78°
2026-05-04 23:08 -23.45366 -46.54218 3530 ft 146 kts 77°
2026-05-04 23:08 -23.45151 -46.53500 3415 ft 148 kts 72°
2026-05-04 23:09 -23.44840 -46.52547 3202 ft 150 kts 78°
2026-05-04 23:09 -23.44599 -46.51436 2976 ft 153 kts 77°
2026-05-04 23:09 -23.44295 -46.50315 2753 ft 156 kts 74°
2026-05-04 23:10 -23.44004 -46.49176 2541 ft 155 kts 73°
2026-05-04 23:10 -23.43708 -46.48064 2467 ft 143 kts 75°
2026-05-04 23:10 -23.43497 -46.47279 2470 ft 84 kts 73°
2026-05-04 23:10 -23.43400 -46.46991 2466 ft 26 kts 54°
2026-05-04 23:11 -23.43317 -46.46879 2465 ft 19 kts 45°
2026-05-04 23:11 -23.43226 -46.46783 2468 ft 18 kts 43°
2026-05-04 23:11 -23.43138 -46.46709 2473 ft 11 kts 14°
2026-05-04 23:11 -23.43117 -46.46710 2469 ft 1 kts 352°
2026-05-04 23:12 -23.43100 -46.46713 2472 ft 3 kts 344°
2026-05-04 23:12 -23.43071 -46.46723 2471 ft 6 kts 342°
2026-05-04 23:12 -23.43022 -46.46739 2472 ft 9 kts 344°
2026-05-04 23:12 -23.42954 -46.46760 2470 ft 11 kts 344°
2026-05-04 23:13 -23.42887 -46.46782 2471 ft 0 kts 344°
2026-05-04 23:13 -23.42885 -46.46782 2471 ft 1 kts 343°
2026-05-04 23:14 -23.42867 -46.46788 2466 ft 4 kts 343°
2026-05-04 23:14 -23.42822 -46.46802 2465 ft 10 kts 343°
2026-05-04 23:14 -23.42755 -46.46795 2455 ft 13 kts 36°
2026-05-04 23:14 -23.42680 -46.46785 2459 ft 10 kts 336°
2026-05-04 23:15 -23.42632 -46.46808 2457 ft 12 kts 336°
2026-05-04 23:15 -23.42604 -46.46845 2455 ft 4 kts 271°
2026-05-04 23:15 -23.42603 -46.46865 2455 ft 4 kts 282°
2026-05-04 23:15 -23.42603 -46.46883 2454 ft 1 kts 238°
2026-05-04 23:16 -23.42610 -46.46888 2457 ft 2 kts 214°
2026-05-04 23:16 -23.42638 -46.46908 2454 ft 7 kts 214°
2026-05-04 23:16 -23.42677 -46.46969 2456 ft 13 kts 252°
2026-05-04 23:16 -23.42704 -46.47079 2454 ft 14 kts 259°
2026-05-04 23:17 -23.42641 -46.47160 2462 ft 18 kts 344°
2026-05-04 23:17 -23.42552 -46.47201 2453 ft 11 kts 317°
2026-05-04 23:17 -23.42493 -46.47277 2457 ft 14 kts 288°
2026-05-04 23:17 -23.42503 -46.47338 2455 ft 8 kts 254°
2026-05-04 23:18 -23.42506 -46.47351 2453 ft 0 kts 255°